Regional Weather Roundup
Issued by NWS

Home | Current Version | Previous Version | Text Only | Print | Product List | Glossary On
Versions: 1 2 3 4 5 6 7 8 9 10 11 12 13 14 15 16 17 18 19 20 21 22 23 24 25 26 27 28 29 30 31 32 33 34 35 36 37 38 39 40 41 42 43 44 45 46 47 48 49 50
000
ASUS44 KLIX 251712
RWRLA
LOUISIANA WEATHER ROUNDUP
NATIONAL WEATHER SERVICE NEW ORLEANS LA
1200 PM CDT MON MAY 25 2015

NOTE: "FAIR" INDICATES FEW OR NO CLOUDS BELOW 12,000 FEET WITH NO
      SIGNIFICANT WEATHER AND/OR OBSTRUCTIONS TO VISIBILITY.
      SKY/WX - SKY CONDITION AND SIGNIFICANT WEATHER.
      TMP - AIR TEMPERATURE.    DP   - DEWPOINT TEMPERATURE.
      RH  - RELATIVE HUMIDITY.  PRES - PRESSURE.
      HX  - HEAT INDEX.         WCI  - WIND CHILL INDEX.

*  THESE STATIONS ARE NOT NWS OR FAA STATIONS AND ARE NOT UNDER
   NWS QUALITY CONTROL.

LAZ040-048-061>063-065-066-069-251800-
SOUTHEAST LOUISIANA

CITY           SKY/WX    TMP DP  RH WIND       PRES   REMARKS
N.O. AUDUBON   NOT AVBL
N.O. INTL ARPT PTSUNNY   87  74  64 S13       30.06F HX  95
N.O. LAKEFRONT PTSUNNY   88  73  61 S14       30.07F HX  95
SLIDELL        CLOUDY    83  76  79 SE12G21   30.07F
BATON ROUGE    MOSUNNY   86  74  67 S10       30.05F
BOOTHVILLE     LGT RAIN  76  68  76 SE24G33   30.12R
BELLE CHASSE   PTSUNNY   83  74  74 S15       30.07F
BOGALUSA*        N/A     84  74  73 S7        30.10S
GALLIANO*      PTSUNNY   87  75  66 MISG      30.08F HX  96
NEW ROADS*     FAIR      85  74  68 S9        30.05F
GONZALES*      TSTM      83  74  75 SW8G17    30.05S
HAMMOND*       PTSUNNY   82  72  69 SE6       30.09F
HOUMA*         MOSUNNY   82  79  89 SE13      30.07S
PORT FOURCHON* MOSUNNY   84  72  65 S15       30.08F

$$

LAZ041-044-053-054-251800-
SOUTHWEST LOUISIANA

CITY           SKY/WX    TMP DP  RH WIND       PRES   REMARKS
LAKE CHARLES   PTSUNNY   87  73  62 S14G20    30.02S
LAFAYETTE      MOSUNNY   86  74  67 S10G21    30.04F
PATTERSON      PTSUNNY   86  73  66 S14G21    30.06F
SALT POINT       N/A     85  77  77 VRB7G17   30.04S HX  95
NEW IBERIA     MOSUNNY   86  75  69 S16       30.05F HX  95
CHENAULT AIRPK PTSUNNY   86  73  66 SE12G23   30.02F

$$

LAZ027-028-251800-
CENTRAL LOUISIANA

CITY           SKY/WX    TMP DP  RH WIND       PRES   REMARKS
FORT POLK      PTSUNNY   85  73  68 S16       30.02S
ALEXANDRIA INT PTSUNNY   83  72  69 VRB7      30.02F
ALEXANDRIA     PTSUNNY   85  72  65 SW7       30.05S

$$

LAZ001-002-251800-
NORTHWEST LOUISIANA

CITY           SKY/WX    TMP DP  RH WIND       PRES   REMARKS
SHREVEPORT     MOSUNNY   83  70  64 S12       29.99S
BARKSDALE AFB  MOSUNNY   81  70  71 S13G22    30.00S
DTN SHREVEPORT PTSUNNY   80  70  71 S13       30.00R

$$

LAZ014-016-251800-
NORTHEAST LOUISIANA

CITY           SKY/WX    TMP DP  RH WIND       PRES   REMARKS
MONROE         PTSUNNY   81  71  71 SW9       30.05S
TALLULAH       MOSUNNY   82  70  66 S10G17    30.07R

$$




USA.gov is the U.S. government's official web portal to all federal, state and local government web resources and services.